N0TRB Weather Reports


Display with metric or nautical units.
time (UTC)temp
F
wind
direction
speed
MPH
gust
MPH
rain 1hr
in
rain 24hr
in
rain mn
in
humidity
%
barometer
mb
20240417003045 49 99 0.0 0.0 0.00 1.50 1.50 90 998.3
20240417001546 49 134 0.0 0.0 0.00 1.50 1.50 91 998.2
20240417000049 48 101 0.0 0.0 0.00 1.50 1.50 92 997.3
20240416234543 47 102 0.0 0.0 0.00 1.50 1.50 94 996.9
20240416233041 47 48 0.0 0.0 0.00 1.50 1.50 94 997.1
20240416231539 46 60 0.0 0.0 0.00 1.50 1.50 95 997.6
20240416230038 46 44 0.0 0.0 0.02 1.50 1.50 95 997.3
20240416224536 45 81 0.0 0.0 0.07 1.50 1.50 95 998.7
20240416223034 45 37 0.0 0.0 0.13 1.50 1.50 95 998.6
20240416221532 45 85 0.0 0.0 0.19 1.50 1.50 95 999.1
20240416220029 44 74 0.0 0.0 0.24 1.47 1.47 94 999.6
20240416214529 44 74 0.0 0.0 0.28 1.42 1.42 94 1000.3
20240416213027 44 74 0.0 0.0 0.28 1.37 1.37 94 1000.8
20240416211530 44 62 0.0 0.0 0.34 1.30 1.30 94 1001.3
20240416210031 44 63 0.0 0.0 0.43 1.22 1.22 93 1001.9
20240416204525 44 80 0.0 0.0 0.42 1.13 1.13 93 1002.3
20240416203024 44 68 0.0 0.0 0.40 1.07 1.07 93 1002.1
20240416201521 44 236 0.0 0.0 0.32 0.95 0.95 92 1004.0
20240416200032 44 92 0.0 0.0 0.18 0.79 0.79 91 1002.0
20240416194534 44 23 0.0 0.0 0.12 0.72 0.72 91 1001.4
20240416193023 44 94 0.0 0.0 0.09 0.67 0.67 90 1001.5
20240416191518 45 87 0.0 0.0 0.04 0.62 0.62 91 1002.2
20240416190022 45 93 0.0 0.0 0.03 0.61 0.61 91 1001.5
20240416184515 45 88 0.0 0.0 0.05 0.60 0.60 91 1002.2
20240416183015 45 109 0.0 0.0 0.06 0.57 0.57 92 1003.4
20240416181513 45 80 0.0 0.0 0.11 0.57 0.57 93 1002.9
20240416180014 45 96 0.0 0.0 0.17 0.57 0.57 92 1003.6
20240416174513 44 64 0.0 0.0 0.19 0.55 0.55 93 1003.5
20240416173009 45 95 0.0 0.0 0.25 0.52 0.52 92 1004.3
20240416171514 44 70 0.0 0.0 0.27 0.47 0.47 92 1005.8
20240416170005 44 90 2.0 8.0 0.25 0.40 0.40 92 1005.9
20240416164502 44 88 0.0 10.0 0.27 0.36 0.36 91 1007.0
20240416163100 44 88 0.0 8.0 0.22 0.27 0.27 90 1006.5
20240416161558 45 83 0.0 5.0 0.19 0.20 0.20 89 1007.1
20240416160100 45 81 0.0 6.0 0.15 0.15 0.15 87 1007.4
20240416154552 46 126 0.0 8.0 0.09 0.09 0.09 85 1008.5
20240416153049 47 101 0.0 8.0 0.05 0.05 0.05 81 1008.0
20240416151546 48 100 2.0 6.0 0.01 0.01 0.01 75 1007.1
20240416150042 49 96 1.0 9.0 0.00 0.00 0.00 70 1007.5
20240416144540 50 344 3.0 7.0 0.00 0.00 0.00 61 1007.5
20240416143046 50 99 3.0 8.0 0.00 0.00 0.00 60 1007.2
20240416141534 51 102 4.0 9.0 0.00 0.00 0.00 60 1007.6
20240416140040 52 123 5.0 12.0 0.00 0.00 0.00 59 1008.3
20240416134530 52 112 5.0 15.0 0.00 0.00 0.00 53 1008.9
20240416133030 53 87 3.0 13.0 0.00 0.00 0.00 52 1009.5
20240416131529 52 108 3.0 11.0 0.00 0.00 0.00 53 1008.5
20240416130028 53 115 2.0 12.0 0.00 0.00 0.00 53 1009.2
20240416124538 53 86 4.0 13.0 0.00 0.00 0.00 53 1008.8
20240416123025 52 130 3.0 12.0 0.00 0.00 0.00 56 1009.1
20240416121531 52 115 8.0 13.0 0.00 0.00 0.00 56 1009.0
20240416120027 53 114 6.0 16.0 0.00 0.00 0.00 55 1008.8
20240416114519 53 87 6.0 14.0 0.00 0.00 0.00 55 1008.7
20240416113019 53 101 6.0 14.0 0.00 0.00 0.00 54 1008.2
20240416111518 54 103 6.0 18.0 0.00 0.00 0.00 53 1008.2
20240416110019 54 72 5.0 19.0 0.00 0.00 0.00 52 1008.1
20240416104515 54 92 7.0 13.0 0.00 0.00 0.00 50 1008.0
20240416103014 55 84 6.0 11.0 0.00 0.00 0.00 49 1008.2
20240416101521 55 100 4.0 13.0 0.00 0.00 0.00 47 1008.4
20240416100014 55 127 6.0 13.0 0.00 0.00 0.00 45 1008.8
20240416094509 55 112 5.0 10.0 0.00 0.00 0.00 43 1009.1
20240416093017 55 82 5.0 10.0 0.00 0.00 0.00 42 1009.4
20240416091506 55 116 4.0 12.0 0.00 0.00 0.00 44 1009.4
20240416090007 55 95 5.0 8.0 0.00 0.00 0.00 43 1008.9
20240416084503 54 84 4.0 9.0 0.00 0.00 0.00 43 1009.4
20240416083100 54 74 5.0 12.0 0.00 0.00 0.00 42 1009.1
20240416081608 54 82 4.0 8.0 0.00 0.00 0.00 43 1009.2
20240416080122 54 113 3.0 7.0 0.00 0.00 0.00 42 1009.1
20240416074557 54 86 3.0 7.0 0.00 0.00 0.00 42 1009.5
20240416073052 54 93 1.0 6.0 0.00 0.00 0.00 44 1009.9
20240416071559 54 95 3.0 7.0 0.00 0.00 0.00 43 1010.1
20240416070054 54 96 3.0 10.0 0.00 0.00 0.00 44 1010.4
20240416064545 54 83 2.0 6.0 0.00 0.00 0.00 44 1010.7
20240416063051 54 103 2.0 6.0 0.00 0.00 0.00 44 1011.1
20240416061549 54 91 1.0 5.0 0.00 0.00 0.00 45 1011.5
20240416060034 53 98 0.0 0.0 0.00 0.00 0.00 49 1011.9
20240416054533 52 97 0.0 0.0 0.00 0.00 0.00 52 1012.1
20240416053039 53 98 0.0 0.0 0.00 0.00 0.00 49 1012.1
20240416051529 53 97 0.0 2.0 0.00 0.00 0.00 49 1012.3
20240416050025 53 98 0.0 4.0 0.00 0.00 0.00 51 1012.3
20240416044530 54 98 0.0 2.0 0.00 0.00 0.00 49 1012.3
20240416043025 55 98 1.0 4.0 0.00 0.00 0.00 47 1012.3
20240416041524 56 98 2.0 4.0 0.00 0.00 0.00 45 1012.2
20240416040023 56 104 0.0 5.0 0.00 0.00 0.00 42 1012.2
20240416034523 56 101 0.0 4.0 0.00 0.00 0.00 43 1012.4
20240416033023 57 94 1.0 6.0 0.00 0.00 0.00 43 1012.4
20240416031526 58 105 3.0 6.0 0.00 0.00 0.00 42 1012.4
20240416030023 58 74 1.0 6.0 0.00 0.00 0.00 40 1012.3
20240416024521 58 97 2.0 6.0 0.00 0.00 0.00 41 1012.5
20240416023020 59 112 2.0 6.0 0.00 0.00 0.00 42 1012.4
20240416021519 59 114 3.0 7.0 0.00 0.00 0.00 39 1012.5
20240416020018 59 111 2.0 6.0 0.00 0.00 0.00 40 1012.6
20240416014518 60 94 3.0 9.0 0.00 0.00 0.00 41 1012.6
20240416013017 60 108 3.0 8.0 0.00 0.00 0.00 39 1012.6
20240416011517 61 69 2.0 8.0 0.00 0.00 0.00 37 1012.6
20240416010016 61 99 3.0 6.0 0.00 0.00 0.00 36 1012.5
20240416004523 62 65 3.0 8.0 0.00 0.00 0.00 36 1012.5